Location: B?dargowo
(53.3916°N, 14.4413°E)
Time: 09:59:33
(UTC+00:00)

H-2A R/B - Pass Details

Date: 05 February 2023
Orbit: 732 x 836 km, 98.2° (Epoch: 19 March)

Event Time Altitude Azimuth Distance (km) Brightness Sun altitude
Rises 16:36:36 0° 196° (SSW) 3,287 5.8 -6.9°
Reaches altitude 10° 16:39:11 10° 207° (SSW) 2,379 5.2 -7.3°
Maximum altitude 16:43:46 30° 268° (W) 1,442 4.4 -7.9°
Drops below altitude 10° 16:48:29 10° 328° (NNW) 2,442 4.8 -8.6°
Sets 16:51:11 0° 340° (NNW) 3,390 5.4 -9.0°
